Tracking 19563 objects as of 20-Mar-2019
HD Live streaming from Space Station
objects crossing your sky now

FLOCK 3M 3

Track FLOCK 3M 3 now!
10-day predictions
FLOCK 3M 3 is classified as:


NORAD ID: 42996
Int'l Code: 2017-068K
Perigee: 502.9 km
Apogee: 522.9 km
Inclination: 97.4 °
Period: 94.7 minutes
Semi major axis: 6883 km
RCS: Unknown
Launch date: October 31, 2017
Source: United States (US)
Launch site: AIR FORCE WESTERN TEST RANGE (AFWTR)
aabbcc
Your satellite tracking list
Your tracking list is empty




NASA's NSSDC Master Catalog

Two Line Element Set (TLE):
1 42996U 17068K   19077.28762858  .00001978  00000-0  94692-4 0  9991
2 42996  97.3622 188.0444 0014568 270.7715 141.8613 15.20027858 76266
Source of the keplerian elements: AFSPC